Location: Ethel Rock
(53.4667°N, 4.5667°W)
Time: 04:52:19
(UTC+00:00)

MSX - Pass Details

Date: 24 October 2020
Orbit: 894 x 907 km, 98.8° (Epoch: 25 November)

Event Time Altitude Azimuth Distance (km) Brightness Sun altitude
Rises 04:54:28 0° 12° (NNE) 3,533 7.2 -19.6°
Reaches altitude 10° 04:57:00 10° 6° (N) 2,586 6.4 -19.3°
Maximum altitude 05:02:19 40° 299° (WNW) 1,293 4.2 -18.5°
Enters shadow 05:04:23 30° 255° (WSW) 1,554 4.5 -18.2°
